sat.trackr.live / text

‹ back to catalog

STARLINK-32023

NORAD 60197 · 2024-124Q

PAYLOAD ACTIVE UNKNOWN

§ Identity

Operator
Country
US
Launch date
2024-07-03
Launch site
AFETR
Launch vehicle
Mass (kg)
RCS (m²)

Purposes: comms

External: N2YO · Heavens-Above · Gunter

§ Orbital elements

Epoch: 2026-05-24T18:43:02.658432Z

Period
93.85 min
Inclination
53.1602°
Eccentricity
0.0001176
Mean motion
15.34388517 rev/d
Perigee alt
461.9 km
Apogee alt
463.5 km
Semi-major
6,840.9 km
B*
3.6662e-5
RAAN
328.4889°
Arg perigee
80.9077°
Mean anomaly
279.2059°
Rev number
10,595

§ Raw data

STARLINK-320231 60197U 24124Q   26144.77989188  .00000862  00000+0  36662-4 0  99922 60197  53.1602 328.4889 0001176  80.9077 279.2059 15.34388517105959

JSON: /api/v1/satellites/60197 · /tle

For live sub-satellite position, see the globe view (requires WebGL).

§ Visibility from observer

Set your observer location to see the next 7 days of passes ≥ 10°. The values pass through the URL so the page stays shareable.

No JS? Fill the form by hand. The geolocation button needs JavaScript.